This is the latest recevied weather packets stored in our database for station/object KD4MBW. If no packets are shown the sender has not sent any weather packets the latest 10 day(s).
| Time | Temp. | Humidity | Pressure | Rain* | Wind** | Luminosity | Snow |
|---|---|---|---|---|---|---|---|
| 1778091233 | 26.67° C | 72% | 1017 hPa | 0 mm | - | 199 W/m² | - |
| 1778090930 | 27.22° C | 71% | 1017.1 hPa | 0 mm | - | 930 W/m² | - |
| 1778090626 | 27.78° C | 72% | 1017.5 hPa | 0 mm | - | 511 W/m² | - |
| 1778090322 | 27.22° C | 72% | 1017.4 hPa | 0 mm | - | 889 W/m² | - |
| 1778090019 | 27.22° C | 71% | 1017.4 hPa | 0 mm | - | 871 W/m² | - |
| 1778089716 | 27.78° C | 72% | 1017.2 hPa | 0 mm | - | 326 W/m² | - |
| 1778089414 | 27.22° C | 72% | 1017.5 hPa | 0 mm | - | 861 W/m² | - |
| 1778089111 | 26.67° C | 75% | 1017.4 hPa | 0 mm | - | 877 W/m² | - |
| 1778088808 | 27.22° C | 73% | 1017.5 hPa | 0 mm | - | 804 W/m² | - |
| 1778088505 | 27.22° C | 73% | 1017.5 hPa | 0 mm | - | 812 W/m² | - |
| 1778088201 | 26.11° C | 73% | 1017.6 hPa | 0 mm | - | 289 W/m² | - |
| 1778087899 | 26.67° C | 77% | 1017.6 hPa | 0 mm | - | 232 W/m² | - |
| 1778087596 | 26.67° C | 76% | 1017.7 hPa | 0 mm | - | 250 W/m² | - |
| 1778087294 | 26.67° C | 76% | 1017.9 hPa | 0 mm | - | 315 W/m² | - |
| 1778086989 | 27.22° C | 75% | 1017.7 hPa | 0 mm | - | 319 W/m² | - |
| 1778086689 | 26.11° C | 78% | 1018 hPa | 0 mm | - | 263 W/m² | - |
| 1778086385 | 26.67° C | 76% | 1017.8 hPa | 0 mm | - | 877 W/m² | - |
| 1778086082 | 26.11° C | 77% | 1017.6 hPa | 0 mm | - | 234 W/m² | - |
| 1778085779 | 26.11° C | 77% | 1017.6 hPa | 0 mm | - | 321 W/m² | - |
| 1778085476 | 27.22° C | 75% | 1017.5 hPa | 0 mm | - | 365 W/m² | - |
| 1778085171 | 26.67° C | 76% | 1017.1 hPa | 0 mm | - | 895 W/m² | - |
| 1778084867 | 26.67° C | 78% | 1017.5 hPa | 0 mm | - | 309 W/m² | - |
| 1778084565 | 26.11° C | 78% | 1017.5 hPa | 0 mm | - | 861 W/m² | - |
| 1778084262 | 26.11° C | 77% | 1017.4 hPa | 0 mm | - | 421 W/m² | - |
| 1778083959 | 26.67° C | 76% | 1017.3 hPa | 0 mm | - | 275 W/m² | - |
* Rain latest hour (hover to see other rain measurements)
** Current wind speed in m/s (hover to see current wind gust speed)